Flag for Vatican City State Weather past 2 weeks in Vatican City, Vatican City State

Now
77 °F

Passing clouds.


Feels Like: 78 °F
Forecast: 73 / 91 °F
Wind: 2 mph from North

Location: Rome / Ciampino

Current Time: Jul 30, 2015 at 11:11:29 PM

Latest Report: Jul 30, 2015 at 10:20 PM


Visibility: N/A

Pressure: 29.86 "Hg

Humidity: 89%

Dew point: 73 °F

Location of Vatican CityLocation

Historic Weather in Vatican City — Graph

°F

Vatican City temperature yesterday

Maximum temperature yesterday: 90 °F (at 1:50 PM)
Minimum temperature yesterday: 66 °F (at 3:50 AM)
Average temperature yesterday: 79 °F

Past Weeks' High & Low Weather Summary

 TemperatureHumidityPressure
High97 °F (Jul 16, 12:50 PM)89% (Jul 21, 3:50 AM)30.09 "Hg (Jul 21, 3:50 AM)
Low66 °F (Jul 29, 3:50 AM)22% (Jul 18, 1:50 PM)29.74 "Hg (Jul 30, 6:50 PM)
Average83 °F56%29.91 "Hg
* Reported Jul 15 9:20 PM — Jul 30 9:50 PM, Vatican City, Weather by CustomWeather, © 2015

Note: Actual official high and low records may vary slightly from our data, if they occured in-between our weather recording intervals... More about our weather records

Advertising

Vatican City weather history for previous 24 hours

 ConditionsComfort  
Time TempWeatherWind HumidityBarometerVisibility
9:50 PM
Thu, Jul 30
79 °FClear.2 mph79%29.86 "Hg10 mi
9:20 PM79 °FPassing clouds.1 mph74%29.83 "HgN/A
8:50 PM79 °FPassing clouds.2 mph79%29.80 "HgN/A
8:20 PM81 °FPassing clouds.5 mph74%29.77 "HgN/A
7:50 PM82 °FPassing clouds.5 mph66%29.77 "HgN/A
7:20 PM82 °FPassing clouds.7 mph70%29.77 "HgN/A
6:50 PM79 °FPartly sunny.13 mph74%29.74 "HgN/A
6:20 PM79 °FLight rain. Scattered clouds.2 mph84%29.89 "Hg6 mi
5:50 PM81 °FLight rain. Scattered clouds.15 mph79%29.89 "Hg4 mi
5:20 PM90 °FScattered clouds.7 mph46%29.83 "HgN/A
4:50 PM88 °FPassing clouds.6 mph49%29.83 "HgN/A
4:20 PM88 °FPassing clouds.6 mph52%29.83 "HgN/A
3:50 PM88 °FPassing clouds.7 mph49%29.83 "HgN/A
3:20 PM90 °FPassing clouds.7 mph46%29.83 "HgN/A
2:50 PM88 °FPassing clouds.9 mph52%29.86 "HgN/A
2:20 PM90 °FPassing clouds.7 mph46%29.86 "HgN/A
1:50 PM88 °FPassing clouds.6 mph52%29.86 "HgN/A
1:20 PM90 °FPassing clouds.9 mph46%29.86 "HgN/A
12:50 PM90 °FPassing clouds.8 mph43%29.86 "HgN/A
12:20 PM88 °FPassing clouds.8 mph43%29.86 "HgN/A
11:50 AM88 °FPassing clouds.7 mph43%29.86 "HgN/A
11:20 AM86 °FPassing clouds.7 mph52%29.86 "HgN/A
10:50 AM86 °FPassing clouds.8 mph55%29.86 "HgN/A
10:20 AM84 °FPassing clouds.7 mph58%29.86 "HgN/A
9:50 AM84 °FScattered clouds.6 mph62%29.86 "HgN/A
9:20 AM82 °FScattered clouds.7 mph66%29.86 "HgN/A
8:50 AM81 °FScattered clouds.6 mph70%29.86 "HgN/A
8:20 AM81 °FPartly sunny.9 mph74%29.86 "HgN/A
7:50 AM79 °FPartly sunny.8 mph79%29.86 "HgN/A
7:20 AM79 °FPartly sunny.6 mph74%29.83 "HgN/A
6:50 AM77 °FPassing clouds.5 mph83%29.83 "HgN/A
5:50 AM75 °FPassing clouds.7 mph89%29.83 "HgN/A
5:20 AM75 °FPassing clouds.6 mph89%29.83 "HgN/A
4:50 AM75 °FPassing clouds.6 mph89%29.83 "HgN/A
4:20 AM75 °FPassing clouds.6 mph89%29.83 "HgN/A
3:50 AM77 °FClear.6 mph83%29.83 "Hg10 mi
2:50 AM75 °FClear.6 mph89%29.83 "Hg10 mi
2:20 AM75 °FClear.5 mph89%29.86 "Hg10 mi
1:50 AM75 °FPassing clouds.5 mph83%29.86 "HgN/A
1:20 AM73 °FPassing clouds.5 mph83%29.86 "HgN/A
12:50 AM73 °FClear.3 mph83%29.86 "Hg10 mi
12:20 AM73 °FClear.5 mph83%29.86 "Hg10 mi
11:50 PM
Wed, Jul 29
75 °FClear.5 mph83%29.86 "Hg10 mi
11:20 PM75 °FPassing clouds.5 mph83%29.86 "HgN/A
Weather by CustomWeather, © 2015

See weather overviewHow to use our weather pages